Regional Weather Roundup
Issued by NWS Boston, MA

Home | Current Version | Previous Version | Text Only | Print | Product List | Glossary On
Versions: 1 2 3 4 5 6 7 8 9 10 11 12 13 14 15 16 17 18 19 20 21 22 23 24 25 26 27 28 29 30 31 32 33 34 35 36 37 38 39 40 41 42 43 44 45 46 47 48 49 50
000
ASUS41 KBOX 210110
RWRBOX

REGIONAL WEATHER ROUNDUP
NATIONAL WEATHER SERVICE TAUNTON MA
900 PM EDT FRI OCT 20 2017

NOTE:  "FAIR" INDICATES FEW OR NO CLOUDS BELOW 12,000 FEET WITH NO
SIGNIFICANT WEATHER AND/OR OBSTRUCTIONS TO VISIBILITY.

MAZALL-210200-
EASTERN MASSACHUSETTS

CITY           SKY/WX    TMP DP  RH WIND       PRES   REMARKS
BOSTON         CLEAR     65  35  33 NW13      30.09R
BEVERLY        CLEAR     60  36  40 N3        30.08R
LAWRENCE       CLEAR     63  35  35 NW7       30.10R
BEDFORD        CLEAR     58  33  39 W6        30.09R
BLUE HILL        N/A     60  33  36 NW15      30.09R
NORWOOD        CLEAR     47  39  74 CALM      30.10R
MARSHFIELD     CLEAR     54  41  62 CALM      30.08R
PLYMOUTH       CLEAR     58  37  45 CALM      30.09R
TAUNTON        CLEAR     48  41  76 CALM      30.09R
NEW BEDFORD    CLEAR     56  40  55 W5        30.09R
$$

MAZALL-210200-
CAPE COD AND THE ISLANDS

CITY           SKY/WX    TMP DP  RH WIND       PRES   REMARKS
FALMOUTH       CLEAR     57  39  51 NE5       30.10R
HYANNIS        CLEAR     60  41  49 NW5       30.07R
CHATHAM        CLEAR     54  46  74 W3        30.08R
PROVINCETOWN   CLEAR     60  50  69 W10       30.08R
NANTUCKET      CLEAR     57  51  80 W8        30.08R
MARTHAS VNYRD  CLEAR     59  43  55 NW8       30.09R
$$

MAZALL-210200-
CENTRAL AND WESTERN MASSACHUSETTS

CITY           SKY/WX    TMP DP  RH WIND       PRES   REMARKS
WORCESTER      CLEAR     59  32  36 NW13      30.12R
FITCHBURG      CLEAR     59  39  47 N6        30.12R
ORANGE         CLEAR     47  41  80 CALM      30.13R
SPRINGFIELD    PTCLDY    50  39  66 NW3       30.12R
WESTFIELD      CLEAR     50  41  71 N3        30.13R
NORTH ADAMS    CLOUDY    50  39  66 NW8       30.15R
PITTSFIELD     CLEAR     57  33  40 W9        30.15R
$$

RIZALL-210200-
RHODE ISLAND

CITY           SKY/WX    TMP DP  RH WIND       PRES   REMARKS
PROVIDENCE     CLEAR     59  42  53 W7        30.12R
NEWPORT        CLEAR     60  45  57 NW8       30.10R
BLOCK ISLAND   CLEAR     63  49  60 W8        30.13R
SMITHFIELD     CLEAR     56  40  55 NW7       30.11R
WESTERLY       CLEAR     53  45  74 W3        30.13R
$$

CTZALL-210200-
CONNECTICUT

CITY           SKY/WX    TMP DP  RH WIND       PRES   REMARKS
BRADLEY INTL   CLEAR     53  42  66 NW6       30.13R
HARTFORD       CLEAR     58  41  53 CALM      30.13R
BRIDGEPORT     CLEAR     58  41  53 NW3       30.15R
DANBURY        CLEAR     51  41  68 CALM      30.17R
GROTON         CLEAR     55  45  68 CALM      30.13R
NEW HAVEN      CLEAR     64  41  42 NW6       30.15R
CHESTER        FAIR      57  41  54 NW6       30.14R
MERIDEN        CLEAR     51  41  68 CALM      30.15R
WILLIMANTIC    CLEAR     50  42  74 CALM      30.14R
OXFORD         CLEAR     54  38  54 E3        30.17R
$$

MEZ002-015-021-024-NHZ003-005-008-011-012-014-VTZ005-008-210200-
NORTHERN NEW ENGLAND

CITY           SKY/WX    TMP DP  RH WIND       PRES   REMARKS
PORTLAND ME    PTCLDY    57  33  40 VRB5      30.06R
BANGOR ME      CLEAR     51  35  54 CALM      30.03R
CONCORD NH     CLEAR     56  34  43 NW6       30.10R
MANCHESTER NH  CLEAR     58  35  42 CALM      30.09R
NASHUA NH      CLEAR     56  38  50 CALM      30.11R
PORTSMOUTH NH  CLEAR     59  34  38 W8        30.06R
JAFFREY NH     CLEAR     57  36  45 N3        30.14R
KEENE NH       CLEAR     46  38  73 CALM      30.14R
BURLINGTON VT  CLEAR     51  39  63 CALM      30.14R
MT. WASHINGTON CLEAR     37  25  60 NW72G81     N/A  WCI  20
$$

NYZ052-076-210200-
EASTERN NEW YORK

CITY           SKY/WX    TMP DP  RH WIND       PRES   REMARKS
ALBANY         CLEAR     59  35  40 W10       30.16R
NEW YORK CITY  PTCLDY    69  41  36 W8        30.15S
$$

ANZALL-210200-
MARINE OBSERVATIONS

STATION/POSITION TIME  TEMP    WIND        PRES    VSBY  WAVE
                       AIR SEA DIR/SP/G                  HT/PER
                 (UTC) (F)     (DEG/KT/KT) (MB)    (MI)  (FT/S)
BOSTON BUOY      0050   61 59  280/ 10/ 10 1018.0R         1/ 9
BUZZARDS BAY     0000   65     290/ 13/ 14 1019.0R
NANTUCKET SOUND  0050   64 62  310/ 10/ 10 1018.5R         1
MASS BAY-STELLWA 0004   63 59  310/  8/ 10 1017.0R         1/ 3
ISLE OF SHOALS   0000   64     300/ 17/ 18 1016.9R
S OF BLOCK IS    NOT AVBL
$$

......................KEY.........................
  SKY/WX - SKY CONDITION/PRESENT WEATHER
  TMP    - TEMPERATURE IN FAHRENHEIT
  DWPT   - DEWPOINT IN FAHRENHEIT
  RH     - RELATIVE HUMIDITY IN PERCENT
  WIND   - DIRECTION AND SPEED IN MPH
  PRES   - MEAN SEA LEVEL PRESSURE IN INCHES OF HG
  WCI    - WIND CHILL INDEX
  VSB    - VISIBILITY IN MILES
  HX     - HEAT INDEX
  TC     - TEMPERATURE IN CELSIUS
  VRB    - VARIABLE WIND DIRECTION
  N/A    - NOT AVAILABLE



USA.gov is the U.S. government's official web portal to all federal, state and local government web resources and services.